XNO95 EGGD-LPFR

Flight info

Callsign XNO95
Flight time 2h 22m
Altitude 34000
Route EXMOR N92 DAWLY DCT BHD DCT SALCO DCT IBISU/N0455F350 DCT BALDA DCT ABUPI DCT ORVED DCT UPULO DCT ALAGU
Aircraft A320/M-SDE3FGHIRWY/LB1

Departure

Time 2026-05-07 19:02
Airport Bristol Airport (EGGD)

Arrival

Time 2026-05-07 21:24
Airport Faro - Gago Coutinho International Airport (LPFR)
Time Latitude Longitude Altitude Speed Heading
2026-05-07 18:29 51.38564 -2.70908 620 ft 0 kts 266°
2026-05-07 18:54 51.38566 -2.70881 609 ft 4 kts 251°
2026-05-07 18:54 51.38579 -2.70848 607 ft 4 kts 207°
2026-05-07 18:54 51.38597 -2.70840 606 ft 1 kts 177°
2026-05-07 18:54 51.38600 -2.70840 609 ft 0 kts 177°
2026-05-07 18:56 51.38598 -2.70840 606 ft 3 kts 177°
2026-05-07 18:57 51.38563 -2.70837 608 ft 4 kts 177°
2026-05-07 18:57 51.38542 -2.70836 616 ft 5 kts 177°
2026-05-07 18:57 51.38501 -2.70832 611 ft 3 kts 176°
2026-05-07 18:57 51.38473 -2.70812 619 ft 6 kts 130°
2026-05-07 18:58 51.38472 -2.70721 615 ft 10 kts 85°
2026-05-07 18:58 51.38477 -2.70598 614 ft 10 kts 87°
2026-05-07 18:58 51.38468 -2.70545 614 ft 2 kts 117°
2026-05-07 18:58 51.38463 -2.70535 614 ft 0 kts 137°
2026-05-07 18:59 51.38462 -2.70534 609 ft 0 kts 137°
2026-05-07 18:59 51.38441 -2.70520 614 ft 7 kts 167°
2026-05-07 18:59 51.38377 -2.70491 621 ft 11 kts 163°
2026-05-07 18:59 51.38321 -2.70526 619 ft 9 kts 248°
2026-05-07 19:00 51.38319 -2.70557 612 ft 4 kts 265°
2026-05-07 19:00 51.38319 -2.70559 612 ft 0 kts 265°
2026-05-07 19:01 51.38317 -2.70584 616 ft 18 kts 265°
2026-05-07 19:01 51.38294 -2.71195 602 ft 88 kts 266°
2026-05-07 19:01 51.38247 -2.72434 624 ft 133 kts 266°
2026-05-07 19:01 51.38164 -2.74579 1110 ft 145 kts 268°
2026-05-07 19:02 51.38112 -2.76211 1634 ft 148 kts 268°
2026-05-07 19:02 51.38078 -2.77315 2017 ft 147 kts 268°
2026-05-07 19:02 51.38031 -2.78988 2372 ft 160 kts 268°
2026-05-07 19:02 51.37970 -2.80834 2589 ft 179 kts 267°
2026-05-07 19:03 51.37898 -2.82940 2790 ft 201 kts 266°
2026-05-07 19:03 51.37813 -2.85303 3084 ft 224 kts 262°
2026-05-07 19:03 51.37207 -2.87666 3402 ft 244 kts 227°
2026-05-07 19:03 51.35946 -2.89609 3932 ft 257 kts 220°
2026-05-07 19:04 51.34601 -2.91537 4721 ft 262 kts 220°
2026-05-07 19:04 51.33246 -2.93518 5563 ft 264 kts 222°
2026-05-07 19:04 51.31910 -2.95552 6395 ft 267 kts 223°
2026-05-07 19:04 51.30588 -2.97644 7198 ft 269 kts 224°
2026-05-07 19:05 51.29321 -2.99819 7938 ft 274 kts 233°
2026-05-07 19:05 51.28388 -3.02487 8660 ft 277 kts 242°
2026-05-07 19:05 51.27519 -3.05258 9389 ft 281 kts 243°
2026-05-07 19:05 51.26645 -3.08061 10107 ft 283 kts 242°
2026-05-07 19:06 51.25738 -3.10973 10386 ft 304 kts 242°
2026-05-07 19:06 51.23707 -3.17449 10641 ft 347 kts 242°
2026-05-07 19:06 51.22600 -3.20963 10979 ft 358 kts 242°
2026-05-07 19:07 51.21473 -3.24533 11545 ft 363 kts 242°
2026-05-07 19:07 51.20325 -3.28127 12169 ft 364 kts 239°
2026-05-07 19:07 51.18847 -3.31416 12735 ft 366 kts 226°
2026-05-07 19:07 51.16957 -3.34036 13286 ft 368 kts 214°
2026-05-07 19:08 51.14688 -3.35939 13836 ft 371 kts 201°
2026-05-07 19:08 51.12179 -3.36967 14376 ft 375 kts 188°
2026-05-07 19:08 51.09571 -3.37422 14911 ft 378 kts 187°
2026-05-07 19:08 51.06949 -3.37871 15417 ft 381 kts 187°
2026-05-07 19:09 51.04309 -3.38328 15901 ft 383 kts 187°
2026-05-07 19:09 51.01646 -3.38789 16394 ft 386 kts 187°
2026-05-07 19:09 50.98963 -3.39256 16860 ft 389 kts 187°
2026-05-07 19:09 50.96303 -3.39721 17354 ft 392 kts 187°
2026-05-07 19:10 50.93583 -3.40194 17841 ft 394 kts 187°
2026-05-07 19:10 50.90844 -3.40666 18309 ft 397 kts 187°
2026-05-07 19:10 50.88083 -3.41142 18772 ft 400 kts 187°
2026-05-07 19:10 50.85312 -3.41619 19230 ft 403 kts 187°
2026-05-07 19:11 50.82518 -3.42098 19699 ft 405 kts 188°
2026-05-07 19:11 50.79711 -3.42576 20154 ft 407 kts 187°
2026-05-07 19:11 50.76882 -3.43059 20589 ft 410 kts 188°
2026-05-07 19:11 50.74039 -3.43548 20993 ft 412 kts 188°
2026-05-07 19:12 50.71220 -3.44034 21392 ft 414 kts 188°
2026-05-07 19:12 50.68350 -3.44530 21776 ft 416 kts 188°
2026-05-07 19:12 50.65460 -3.45028 22142 ft 418 kts 188°
2026-05-07 19:12 50.62557 -3.45527 22486 ft 421 kts 188°
2026-05-07 19:13 50.59639 -3.46025 22832 ft 423 kts 187°
2026-05-07 19:13 50.56713 -3.46523 23166 ft 425 kts 187°
2026-05-07 19:13 50.53768 -3.47022 23517 ft 426 kts 188°
2026-05-07 19:13 50.50814 -3.47521 23845 ft 428 kts 188°
2026-05-07 19:14 50.47845 -3.48024 24170 ft 430 kts 187°
2026-05-07 19:14 50.44863 -3.48527 24484 ft 432 kts 187°
2026-05-07 19:14 50.41907 -3.49025 24796 ft 434 kts 187°
2026-05-07 19:14 50.38903 -3.49499 25196 ft 433 kts 186°
2026-05-07 19:15 50.35899 -3.49803 25641 ft 432 kts 184°
2026-05-07 19:15 50.32891 -3.49971 26083 ft 431 kts 183°
2026-05-07 19:15 50.29894 -3.50070 26526 ft 431 kts 182°
2026-05-07 19:15 50.26900 -3.50155 26969 ft 429 kts 182°
2026-05-07 19:16 50.23917 -3.50255 27406 ft 428 kts 183°
2026-05-07 19:16 50.20988 -3.50375 27840 ft 426 kts 183°
2026-05-07 19:16 50.17991 -3.50526 28286 ft 425 kts 184°
2026-05-07 19:16 50.15079 -3.50691 28685 ft 424 kts 184°
2026-05-07 19:17 50.12135 -3.50863 29090 ft 423 kts 184°
2026-05-07 19:17 50.09194 -3.51035 29496 ft 422 kts 184°
2026-05-07 19:17 50.06268 -3.51201 29892 ft 421 kts 184°
2026-05-07 19:17 50.03347 -3.51360 30293 ft 420 kts 184°
2026-05-07 19:18 50.00431 -3.51515 30698 ft 419 kts 184°
2026-05-07 19:18 49.97518 -3.51672 31091 ft 418 kts 184°
2026-05-07 19:18 49.94620 -3.51828 31500 ft 416 kts 184°
2026-05-07 19:18 49.91765 -3.51982 31889 ft 415 kts 183°
2026-05-07 19:19 49.88885 -3.52137 32267 ft 414 kts 183°
2026-05-07 19:19 49.86012 -3.52292 32652 ft 413 kts 184°
2026-05-07 19:19 49.83145 -3.52449 33025 ft 412 kts 184°
2026-05-07 19:19 49.80285 -3.52604 33384 ft 411 kts 183°
2026-05-07 19:20 49.77431 -3.52754 33740 ft 410 kts 184°
2026-05-07 19:20 49.74584 -3.53001 33971 ft 409 kts 188°
2026-05-07 19:20 49.68993 -3.55025 34013 ft 420 kts 197°
2026-05-07 19:21 49.63347 -3.57524 34006 ft 427 kts 197°
2026-05-07 19:21 49.57626 -3.60050 34004 ft 428 kts 197°
2026-05-07 19:22 49.51888 -3.62577 34009 ft 428 kts 197°
2026-05-07 19:22 49.46160 -3.65090 34010 ft 428 kts 197°
2026-05-07 19:23 49.40431 -3.67591 34011 ft 429 kts 197°
2026-05-07 19:23 49.34729 -3.70077 34015 ft 429 kts 197°
2026-05-07 19:24 49.28988 -3.72571 34011 ft 429 kts 197°
2026-05-07 19:24 49.23243 -3.75059 34018 ft 429 kts 197°
2026-05-07 19:25 49.17499 -3.77556 34017 ft 429 kts 197°
2026-05-07 19:25 49.11754 -3.80037 34018 ft 429 kts 197°
2026-05-07 19:26 49.06044 -3.82491 34014 ft 429 kts 197°
2026-05-07 19:26 49.00299 -3.84966 34014 ft 429 kts 197°
2026-05-07 19:27 48.94550 -3.87433 34017 ft 429 kts 197°
2026-05-07 19:27 48.88803 -3.89893 34014 ft 429 kts 197°
2026-05-07 19:28 48.83084 -3.92331 34008 ft 429 kts 197°
2026-05-07 19:28 48.77330 -3.94781 34011 ft 430 kts 197°
2026-05-07 19:29 48.71576 -3.97222 34011 ft 430 kts 197°
2026-05-07 19:29 48.65812 -3.99668 34008 ft 430 kts 197°
2026-05-07 19:30 48.60052 -4.02100 34004 ft 430 kts 197°
2026-05-07 19:30 48.54316 -4.04516 34006 ft 431 kts 197°
2026-05-07 19:31 48.48543 -4.06947 34006 ft 431 kts 197°
2026-05-07 19:31 48.42763 -4.09373 34008 ft 431 kts 196°
2026-05-07 19:32 48.36979 -4.11796 34011 ft 431 kts 197°
2026-05-07 19:32 48.31196 -4.14207 34010 ft 431 kts 196°
2026-05-07 19:33 48.25454 -4.16594 34010 ft 431 kts 196°
2026-05-07 19:33 48.19678 -4.18989 34010 ft 430 kts 196°
2026-05-07 19:34 48.13910 -4.21394 34005 ft 430 kts 196°
2026-05-07 19:34 48.08133 -4.23791 34003 ft 430 kts 196°
2026-05-07 19:35 48.02400 -4.26153 34001 ft 430 kts 196°
2026-05-07 19:35 47.96632 -4.28533 34000 ft 430 kts 196°
2026-05-07 19:36 47.90858 -4.30913 34000 ft 430 kts 196°
2026-05-07 19:36 47.85082 -4.33278 33996 ft 431 kts 196°
2026-05-07 19:37 47.79297 -4.35639 34000 ft 431 kts 196°
2026-05-07 19:37 47.73547 -4.37989 34003 ft 431 kts 196°
2026-05-07 19:38 47.67755 -4.40345 34001 ft 432 kts 196°
2026-05-07 19:38 47.61960 -4.42689 33999 ft 432 kts 196°
2026-05-07 19:39 47.56154 -4.45038 33999 ft 432 kts 197°
2026-05-07 19:39 47.50347 -4.47387 33996 ft 433 kts 197°
2026-05-07 19:40 47.44574 -4.49719 33995 ft 433 kts 197°
2026-05-07 19:40 47.38757 -4.52066 33996 ft 434 kts 197°
2026-05-07 19:41 47.32931 -4.54407 33997 ft 434 kts 197°
2026-05-07 19:41 47.27103 -4.56744 33999 ft 435 kts 197°
2026-05-07 19:42 47.21297 -4.59061 34001 ft 435 kts 197°
2026-05-07 19:42 47.15448 -4.61389 34003 ft 436 kts 197°
2026-05-07 19:43 47.09597 -4.63720 34002 ft 436 kts 197°
2026-05-07 19:43 47.03723 -4.66020 34007 ft 437 kts 196°
2026-05-07 19:44 46.97837 -4.68263 34006 ft 437 kts 196°
2026-05-07 19:44 46.91988 -4.70497 34004 ft 438 kts 197°
2026-05-07 19:45 46.86094 -4.72763 34001 ft 438 kts 197°
2026-05-07 19:45 46.80129 -4.75055 33989 ft 448 kts 197°
2026-05-07 19:46 46.74112 -4.77333 33989 ft 446 kts 196°
2026-05-07 19:46 46.68148 -4.79590 33981 ft 446 kts 197°
2026-05-07 19:47 46.62138 -4.81876 33979 ft 446 kts 197°
2026-05-07 19:47 46.56126 -4.84160 33982 ft 447 kts 197°
2026-05-07 19:48 46.50104 -4.86440 33988 ft 448 kts 197°
2026-05-07 19:48 46.44061 -4.88705 33988 ft 448 kts 196°
2026-05-07 19:49 46.38065 -4.90945 33986 ft 448 kts 197°
2026-05-07 19:49 46.32023 -4.93216 33982 ft 449 kts 197°
2026-05-07 19:50 46.25976 -4.95485 33983 ft 449 kts 197°
2026-05-07 19:50 46.19928 -4.97746 33980 ft 449 kts 197°
2026-05-07 19:51 46.13912 -4.99990 33976 ft 449 kts 197°
2026-05-07 19:51 46.07854 -5.02242 33972 ft 450 kts 197°
2026-05-07 19:52 46.01784 -5.04490 33971 ft 450 kts 197°
2026-05-07 19:52 45.95705 -5.06733 33964 ft 451 kts 197°
2026-05-07 19:53 45.89652 -5.08958 33955 ft 453 kts 197°
2026-05-07 19:53 45.83546 -5.11213 33954 ft 454 kts 197°
2026-05-07 19:54 45.77423 -5.13466 33944 ft 455 kts 197°
2026-05-07 19:54 45.71287 -5.15718 33947 ft 455 kts 197°
2026-05-07 19:55 45.65152 -5.17964 33951 ft 456 kts 197°
2026-05-07 19:55 45.59040 -5.20196 33949 ft 456 kts 197°
2026-05-07 19:56 45.52895 -5.22425 33950 ft 456 kts 197°
2026-05-07 19:56 45.46747 -5.24652 33950 ft 456 kts 197°
2026-05-07 19:57 45.40602 -5.26880 33933 ft 456 kts 197°
2026-05-07 19:57 45.34490 -5.29101 33932 ft 456 kts 197°
2026-05-07 19:58 45.28337 -5.31326 33931 ft 457 kts 197°
2026-05-07 19:58 45.22180 -5.33542 33931 ft 457 kts 197°
2026-05-07 19:59 45.16014 -5.35758 33930 ft 457 kts 197°
2026-05-07 19:59 45.09848 -5.37965 33928 ft 457 kts 197°
2026-05-07 20:00 45.03716 -5.40155 33929 ft 458 kts 197°
2026-05-07 20:00 44.97529 -5.42362 33931 ft 458 kts 197°
2026-05-07 20:01 44.91348 -5.44558 33926 ft 458 kts 197°
2026-05-07 20:01 44.85160 -5.46758 33925 ft 459 kts 197°
2026-05-07 20:02 44.79013 -5.48939 33926 ft 459 kts 197°
2026-05-07 20:02 44.72810 -5.51125 33924 ft 459 kts 198°
2026-05-07 20:03 44.66616 -5.53310 33919 ft 459 kts 197°
2026-05-07 20:03 44.60461 -5.55653 33909 ft 456 kts 204°
2026-05-07 20:04 44.54661 -5.59203 33905 ft 455 kts 207°
2026-05-07 20:04 44.48924 -5.62759 33909 ft 446 kts 207°
2026-05-07 20:05 44.43335 -5.66198 33918 ft 435 kts 208°
2026-05-07 20:05 44.37804 -5.69608 33924 ft 435 kts 208°
2026-05-07 20:06 44.32263 -5.73011 33925 ft 435 kts 208°
2026-05-07 20:06 44.26746 -5.76382 33924 ft 436 kts 208°
2026-05-07 20:07 44.21192 -5.79773 33924 ft 436 kts 208°
2026-05-07 20:07 44.15637 -5.83167 33926 ft 436 kts 208°
2026-05-07 20:08 44.10074 -5.86555 33929 ft 436 kts 208°
2026-05-07 20:08 44.04506 -5.89943 33930 ft 436 kts 208°
2026-05-07 20:09 43.98982 -5.93289 33930 ft 437 kts 208°
2026-05-07 20:10 43.90620 -5.98351 33933 ft 437 kts 208°
2026-05-07 20:10 43.85038 -6.01717 33934 ft 437 kts 208°
2026-05-07 20:11 43.79460 -6.05075 33932 ft 438 kts 208°
2026-05-07 20:11 43.73911 -6.08405 33935 ft 437 kts 208°
2026-05-07 20:12 43.68329 -6.11753 33936 ft 437 kts 208°
2026-05-07 20:12 43.62758 -6.15095 33936 ft 437 kts 208°
2026-05-07 20:13 43.57186 -6.18423 33937 ft 436 kts 208°
2026-05-07 20:13 43.51612 -6.21741 33936 ft 436 kts 208°
2026-05-07 20:14 43.46075 -6.25027 33937 ft 436 kts 208°
2026-05-07 20:14 43.40505 -6.28333 33933 ft 435 kts 208°
2026-05-07 20:15 43.34947 -6.31624 33934 ft 435 kts 208°
2026-05-07 20:15 43.29424 -6.34893 33935 ft 435 kts 209°
2026-05-07 20:16 43.23875 -6.38171 33934 ft 434 kts 209°
2026-05-07 20:16 43.18329 -6.41442 33934 ft 433 kts 209°
2026-05-07 20:17 43.12789 -6.44695 33935 ft 433 kts 209°
2026-05-07 20:17 43.07292 -6.47916 33927 ft 431 kts 209°
2026-05-07 20:18 43.01770 -6.51143 33932 ft 432 kts 209°
2026-05-07 20:18 42.96247 -6.54367 33937 ft 431 kts 210°
2026-05-07 20:19 42.90736 -6.57586 33936 ft 431 kts 210°
2026-05-07 20:19 42.85229 -6.60797 33937 ft 430 kts 210°
2026-05-07 20:20 42.79765 -6.63979 33933 ft 430 kts 210°
2026-05-07 20:20 42.74254 -6.67169 33936 ft 430 kts 210°
2026-05-07 20:21 42.68750 -6.70344 33937 ft 430 kts 210°
2026-05-07 20:21 42.63243 -6.73517 33936 ft 429 kts 210°
2026-05-07 20:22 42.57756 -6.76691 33935 ft 429 kts 210°
2026-05-07 20:22 42.52310 -6.79822 33924 ft 425 kts 210°
2026-05-07 20:23 42.46941 -6.82897 33914 ft 415 kts 210°
2026-05-07 20:23 42.41634 -6.85941 33916 ft 414 kts 210°
2026-05-07 20:24 42.36333 -6.88975 33914 ft 413 kts 211°
2026-05-07 20:24 42.31081 -6.91983 33916 ft 413 kts 211°
2026-05-07 20:25 42.25789 -6.94996 33921 ft 413 kts 211°
2026-05-07 20:25 42.20507 -6.98001 33945 ft 411 kts 211°
2026-05-07 20:26 42.15251 -7.00990 33945 ft 409 kts 211°
2026-05-07 20:26 42.10015 -7.03951 33945 ft 407 kts 211°
2026-05-07 20:27 42.04838 -7.06874 33953 ft 406 kts 211°
2026-05-07 20:27 41.99645 -7.09806 33947 ft 404 kts 211°
2026-05-07 20:28 41.94470 -7.12734 33949 ft 402 kts 211°
2026-05-07 20:28 41.89318 -7.15632 33953 ft 401 kts 211°
2026-05-07 20:29 41.84181 -7.18512 33949 ft 399 kts 211°
2026-05-07 20:29 41.79102 -7.21370 33945 ft 399 kts 211°
2026-05-07 20:30 41.73821 -7.23817 33939 ft 410 kts 200°
2026-05-07 20:30 41.68121 -7.24889 33936 ft 414 kts 197°
2026-05-07 20:31 41.62417 -7.25904 33948 ft 413 kts 197°
2026-05-07 20:31 41.56760 -7.26935 33937 ft 413 kts 197°
2026-05-07 20:32 41.51064 -7.27975 33934 ft 413 kts 197°
2026-05-07 20:32 41.45371 -7.28998 33932 ft 413 kts 197°
2026-05-07 20:33 41.39674 -7.30019 33935 ft 413 kts 197°
2026-05-07 20:33 41.34019 -7.31044 33934 ft 413 kts 197°
2026-05-07 20:34 41.28320 -7.32072 33934 ft 413 kts 197°
2026-05-07 20:34 41.22621 -7.33090 33951 ft 413 kts 197°
2026-05-07 20:35 41.16926 -7.34105 33944 ft 413 kts 197°
2026-05-07 20:35 41.11238 -7.35117 33937 ft 412 kts 197°
2026-05-07 20:36 41.05596 -7.36124 33945 ft 412 kts 197°
2026-05-07 20:36 40.99907 -7.37141 33936 ft 412 kts 197°
2026-05-07 20:37 40.94233 -7.38147 33936 ft 411 kts 197°
2026-05-07 20:37 40.88559 -7.39149 33933 ft 411 kts 197°
2026-05-07 20:38 40.82918 -7.40148 33933 ft 412 kts 197°
2026-05-07 20:38 40.77242 -7.41153 33932 ft 411 kts 197°
2026-05-07 20:39 40.71578 -7.42155 33933 ft 411 kts 197°
2026-05-07 20:39 40.65923 -7.43154 33931 ft 410 kts 196°
2026-05-07 20:40 40.60265 -7.44141 33929 ft 410 kts 196°
2026-05-07 20:40 40.54647 -7.45123 33933 ft 410 kts 196°
2026-05-07 20:41 40.48993 -7.46124 33933 ft 410 kts 196°
2026-05-07 20:41 40.43348 -7.47111 33941 ft 409 kts 196°
2026-05-07 20:42 40.37727 -7.48095 33937 ft 406 kts 196°
2026-05-07 20:42 40.32170 -7.49060 33936 ft 404 kts 196°
2026-05-07 20:43 40.26609 -7.50022 33942 ft 403 kts 196°
2026-05-07 20:43 40.21061 -7.50988 33937 ft 402 kts 196°
2026-05-07 20:44 40.15514 -7.51956 33937 ft 402 kts 196°
2026-05-07 20:44 40.10012 -7.52915 33935 ft 401 kts 196°
2026-05-07 20:45 40.04482 -7.53880 33933 ft 401 kts 196°
2026-05-07 20:45 39.98961 -7.54825 33932 ft 400 kts 196°
2026-05-07 20:46 39.93438 -7.55777 33935 ft 400 kts 196°
2026-05-07 20:46 39.87930 -7.56722 33935 ft 399 kts 196°
2026-05-07 20:47 39.82428 -7.57667 33936 ft 399 kts 196°
2026-05-07 20:47 39.76961 -7.58608 33934 ft 399 kts 196°
2026-05-07 20:48 39.71464 -7.59551 33930 ft 399 kts 196°
2026-05-07 20:48 39.65962 -7.60493 33928 ft 398 kts 196°
2026-05-07 20:49 39.60469 -7.61432 33930 ft 399 kts 196°
2026-05-07 20:49 39.54964 -7.62371 33933 ft 399 kts 196°
2026-05-07 20:50 39.49499 -7.63295 33934 ft 398 kts 196°
2026-05-07 20:50 39.44008 -7.64227 33929 ft 398 kts 196°
2026-05-07 20:51 39.38509 -7.65122 33925 ft 401 kts 193°
2026-05-07 20:51 39.32881 -7.65194 33921 ft 406 kts 189°
2026-05-07 20:52 39.27235 -7.65194 33921 ft 405 kts 189°
2026-05-07 20:52 39.21643 -7.65188 33934 ft 404 kts 189°
2026-05-07 20:53 39.16035 -7.65185 33934 ft 402 kts 189°
2026-05-07 20:53 39.10450 -7.65188 33932 ft 401 kts 189°
2026-05-07 20:54 39.04881 -7.65189 33929 ft 400 kts 189°
2026-05-07 20:54 38.99342 -7.65079 33923 ft 401 kts 187°
2026-05-07 20:55 38.93774 -7.64820 33919 ft 401 kts 187°
2026-05-07 20:55 38.88212 -7.64541 33916 ft 400 kts 187°
2026-05-07 20:56 38.82659 -7.64314 33920 ft 399 kts 187°
2026-05-07 20:56 38.77116 -7.64114 33921 ft 398 kts 187°
2026-05-07 20:57 38.71624 -7.63906 33924 ft 397 kts 187°
2026-05-07 20:57 38.66098 -7.63687 33927 ft 397 kts 187°
2026-05-07 20:58 38.60579 -7.63464 33930 ft 397 kts 187°
2026-05-07 20:58 38.57801 -7.63358 33288 ft 404 kts 187°
2026-05-07 20:58 38.54979 -7.63252 32767 ft 403 kts 186°
2026-05-07 20:58 38.52211 -7.63133 32621 ft 393 kts 186°
2026-05-07 20:59 38.49511 -7.63014 31917 ft 397 kts 186°
2026-05-07 20:59 38.46706 -7.62909 30905 ft 409 kts 186°
2026-05-07 20:59 38.43859 -7.62807 29912 ft 409 kts 185°
2026-05-07 20:59 38.41028 -7.62702 29188 ft 403 kts 185°
2026-05-07 21:00 38.38249 -7.62588 28837 ft 397 kts 184°
2026-05-07 21:00 38.35504 -7.62472 28568 ft 390 kts 184°
2026-05-07 21:00 38.32834 -7.62356 28440 ft 379 kts 184°
2026-05-07 21:00 38.30232 -7.62246 28311 ft 369 kts 185°
2026-05-07 21:01 38.27720 -7.62142 28040 ft 354 kts 185°
2026-05-07 21:01 38.25296 -7.62050 27832 ft 343 kts 185°
2026-05-07 21:01 38.22969 -7.61966 27606 ft 336 kts 185°
2026-05-07 21:01 38.20647 -7.61880 27276 ft 332 kts 185°
2026-05-07 21:02 38.18342 -7.61794 26803 ft 330 kts 185°
2026-05-07 21:02 38.16057 -7.61709 26270 ft 329 kts 185°
2026-05-07 21:02 38.13760 -7.61625 25669 ft 331 kts 184°
2026-05-07 21:02 38.11461 -7.61537 25136 ft 331 kts 184°
2026-05-07 21:03 38.09169 -7.61449 24639 ft 328 kts 184°
2026-05-07 21:03 38.06911 -7.61389 24243 ft 320 kts 184°
2026-05-07 21:03 38.04715 -7.61376 23788 ft 311 kts 184°
2026-05-07 21:03 38.02577 -7.61385 23364 ft 302 kts 184°
2026-05-07 21:04 38.00480 -7.61402 22768 ft 300 kts 185°
2026-05-07 21:04 37.98431 -7.61419 22220 ft 297 kts 184°
2026-05-07 21:04 37.96380 -7.61433 21748 ft 291 kts 184°
2026-05-07 21:04 37.94383 -7.61439 21374 ft 283 kts 184°
2026-05-07 21:05 37.92435 -7.61442 20998 ft 278 kts 184°
2026-05-07 21:05 37.90517 -7.61442 20630 ft 274 kts 184°
2026-05-07 21:05 37.88614 -7.61442 20332 ft 272 kts 184°
2026-05-07 21:05 37.86743 -7.61443 20031 ft 267 kts 184°
2026-05-07 21:06 37.84899 -7.61443 19725 ft 263 kts 184°
2026-05-07 21:06 37.83088 -7.61445 19429 ft 259 kts 184°
2026-05-07 21:06 37.81296 -7.61445 19070 ft 256 kts 184°
2026-05-07 21:06 37.79540 -7.61444 18735 ft 254 kts 184°
2026-05-07 21:07 37.77777 -7.61444 18393 ft 252 kts 184°
2026-05-07 21:07 37.76034 -7.61446 18055 ft 250 kts 184°
2026-05-07 21:07 37.74295 -7.61448 17721 ft 251 kts 183°
2026-05-07 21:07 37.72549 -7.61450 17383 ft 252 kts 183°
2026-05-07 21:08 37.70791 -7.61455 17045 ft 253 kts 183°
2026-05-07 21:08 37.69027 -7.61459 16706 ft 254 kts 183°
2026-05-07 21:08 37.67277 -7.61460 16365 ft 248 kts 182°
2026-05-07 21:08 37.66139 -7.61460 16147 ft 246 kts 182°
2026-05-07 21:09 37.64431 -7.61459 15822 ft 245 kts 182°
2026-05-07 21:09 37.62734 -7.61457 15499 ft 243 kts 182°
2026-05-07 21:09 37.60502 -7.61456 15023 ft 241 kts 182°
2026-05-07 21:09 37.58831 -7.61457 14589 ft 241 kts 182°
2026-05-07 21:10 37.57177 -7.61457 14390 ft 236 kts 182°
2026-05-07 21:10 37.55537 -7.61456 14118 ft 236 kts 182°
2026-05-07 21:10 37.54450 -7.61455 13921 ft 236 kts 182°
2026-05-07 21:10 37.52809 -7.61454 13617 ft 236 kts 182°
2026-05-07 21:11 37.51161 -7.61457 13302 ft 237 kts 181°
2026-05-07 21:11 37.49511 -7.61461 12995 ft 238 kts 181°
2026-05-07 21:11 37.46187 -7.61463 12369 ft 239 kts 181°
2026-05-07 21:12 37.44520 -7.61462 12050 ft 239 kts 181°
2026-05-07 21:12 37.42867 -7.61463 11739 ft 236 kts 181°
2026-05-07 21:12 37.41241 -7.61464 11432 ft 233 kts 181°
2026-05-07 21:12 37.39631 -7.61464 11131 ft 229 kts 181°
2026-05-07 21:13 37.38041 -7.61465 10830 ft 228 kts 180°
2026-05-07 21:13 37.36478 -7.61468 10541 ft 228 kts 180°
2026-05-07 21:13 37.34892 -7.61467 10244 ft 228 kts 180°
2026-05-07 21:13 37.33305 -7.61468 9943 ft 228 kts 180°
2026-05-07 21:14 37.31718 -7.61469 9655 ft 228 kts 180°
2026-05-07 21:14 37.30115 -7.61470 9356 ft 232 kts 180°
2026-05-07 21:14 37.28500 -7.61471 9056 ft 233 kts 180°
2026-05-07 21:14 37.26878 -7.61470 8751 ft 233 kts 180°
2026-05-07 21:15 37.25254 -7.61471 8446 ft 233 kts 180°
2026-05-07 21:15 37.23636 -7.61469 8142 ft 233 kts 180°
2026-05-07 21:15 37.22034 -7.61468 7841 ft 233 kts 180°
2026-05-07 21:15 37.20409 -7.61469 7536 ft 234 kts 180°
2026-05-07 21:16 37.18785 -7.61468 7231 ft 234 kts 180°
2026-05-07 21:16 37.17159 -7.61470 6923 ft 234 kts 180°
2026-05-07 21:16 37.15535 -7.61475 6616 ft 234 kts 181°
2026-05-07 21:16 37.13906 -7.61480 6310 ft 234 kts 181°
2026-05-07 21:17 37.12279 -7.61482 6000 ft 234 kts 181°
2026-05-07 21:17 37.10655 -7.61480 5699 ft 233 kts 181°
2026-05-07 21:17 37.09045 -7.61517 5395 ft 232 kts 187°
2026-05-07 21:17 37.07487 -7.61930 5119 ft 230 kts 200°
2026-05-07 21:18 37.06042 -7.62703 5051 ft 225 kts 205°
2026-05-07 21:18 37.04618 -7.63492 5005 ft 224 kts 205°
2026-05-07 21:18 37.03191 -7.64276 4917 ft 223 kts 205°
2026-05-07 21:18 37.01771 -7.65053 4817 ft 223 kts 205°
2026-05-07 21:19 37.00351 -7.65833 4712 ft 223 kts 205°
2026-05-07 21:19 36.98939 -7.66632 4606 ft 222 kts 210°
2026-05-07 21:19 36.97864 -7.67957 4511 ft 219 kts 244°
2026-05-07 21:19 36.97581 -7.69786 4214 ft 221 kts 277°
2026-05-07 21:20 36.97851 -7.71678 3895 ft 222 kts 280°
2026-05-07 21:20 36.98133 -7.73570 3574 ft 221 kts 280°
2026-05-07 21:20 36.98412 -7.75466 3264 ft 222 kts 280°
2026-05-07 21:20 36.98688 -7.77351 2951 ft 216 kts 280°
2026-05-07 21:21 36.98948 -7.79143 2675 ft 204 kts 280°
2026-05-07 21:21 36.99191 -7.80838 2428 ft 191 kts 280°
2026-05-07 21:21 36.99415 -7.82397 2188 ft 173 kts 281°
2026-05-07 21:21 36.99619 -7.83814 1960 ft 160 kts 281°
2026-05-07 21:22 36.99813 -7.85176 1744 ft 159 kts 281°
2026-05-07 21:22 37.00006 -7.86514 1534 ft 158 kts 281°
2026-05-07 21:22 37.00198 -7.87860 1383 ft 157 kts 281°
2026-05-07 21:22 37.00383 -7.89169 1257 ft 145 kts 280°
2026-05-07 21:23 37.00539 -7.90361 966 ft 135 kts 281°
2026-05-07 21:23 37.00697 -7.91491 783 ft 132 kts 282°
2026-05-07 21:23 37.00866 -7.92638 623 ft 135 kts 282°
2026-05-07 21:23 37.01044 -7.93801 425 ft 136 kts 282°
2026-05-07 21:24 37.01210 -7.94962 238 ft 135 kts 281°
2026-05-07 21:24 37.01378 -7.96122 56 ft 136 kts 281°
2026-05-07 21:24 37.01523 -7.97126 20 ft 83 kts 279°
2026-05-07 21:24 37.01592 -7.97624 19 ft 45 kts 280°
2026-05-07 21:25 37.01623 -7.97825 19 ft 12 kts 291°
2026-05-07 21:25 37.01691 -7.97845 20 ft 12 kts 30°
2026-05-07 21:25 37.01733 -7.97790 20 ft 4 kts 58°
2026-05-07 21:25 37.01746 -7.97754 20 ft 0 kts 67°
2026-05-07 21:26 37.01747 -7.97751 20 ft 1 kts 67°
2026-05-07 21:26 37.01754 -7.97733 20 ft 3 kts 67°
2026-05-07 21:26 37.01765 -7.97691 20 ft 7 kts 76°
2026-05-07 21:27 37.01771 -7.97622 20 ft 10 kts 88°
2026-05-07 21:27 37.01761 -7.97516 20 ft 14 kts 101°
2026-05-07 21:27 37.01743 -7.97390 21 ft 16 kts 100°
2026-05-07 21:27 37.01721 -7.97244 21 ft 18 kts 101°
2026-05-07 21:28 37.01696 -7.97078 21 ft 20 kts 100°
2026-05-07 21:28 37.01682 -7.96978 22 ft 8 kts 100°
2026-05-07 21:28 37.01693 -7.96915 20 ft 9 kts 43°
2026-05-07 21:28 37.01759 -7.96892 20 ft 11 kts 10°
2026-05-07 21:29 37.01828 -7.96895 21 ft 10 kts 326°
2026-05-07 21:29 37.01848 -7.96969 20 ft 6 kts 280°
2026-05-07 21:29 37.01875 -7.96988 23 ft 6 kts
2026-05-07 21:29 37.01910 -7.96979 20 ft 2 kts 11°
2026-05-07 21:30 37.01927 -7.96975 20 ft 2 kts 10°
2026-05-07 21:30 37.01934 -7.96974 20 ft 0 kts 10°